FLOCK 3P-56

Last updated on Wed Feb 14 2018 16:20:33 GMT+0000 (Coordinated Universal Time)

1 42042U 17008CY 18044.86636619 .00002336 00000-0 98075-4 0 9997 2 42042 97.4657 110.6276 0009000 93.6153 266.6114 15.24442836 55130

Satellite not in orbit

FLOCK 3P-56